Location: Cronhütte
(48.9135°N, 9.6869°E)
Time: 20:13:20
(UTC+00:00)

Genesis I - Pass Details

Date: 23 May 2024
Orbit: 432 x 466 km, 64.5° (Epoch: 24 June)

Event Time Altitude Azimuth Distance (km) Brightness Sun altitude
Exits shadow 02:05:25 18° 215° (SW) 1,186 4.4 -11.1°
Maximum altitude 02:07:58 84° 127° (SE) 459 2.9 -10.8°
Drops below altitude 10° 02:11:31 10° 41° (NE) 1,602 7.3 -10.4°
Sets 02:13:40 0° 40° (NE) 2,488 9.0 -10.2°
